COSMOS 374 DEB

Satellite information

Favourite Embed

Satellite Type and Status

DEBRISIN ORBIT

Key statistics

Satellite COSMOS 374 DEB at a glance.

Uptime

20045

Days in orbit

Revolutions

≈ 14.7

Per day

Orbit

LEO

Low Earth Orbit

Inclination

62.9

Latest

Satellite identification and parameters

Extended collection of information and parameters for COSMOS 374 DEB.

Object identification

Identified? True

Debris? True

Object name: COSMOS 374 DEB

International designator: 1970-089R

Object number (NORAD): 4699

Object ID (CCSDS): 4699

Country: COMMONWEALTH OF INDEPENDENT STATES (CIS)

Current information (Y/N): Y

RCS size: SMALL

Orbital parameters

Period: 97.979 minutes

Inclination: 62.9156 deg

SMA: 7040.146 km

Apoapsis: 847.445 km

Periapsis: 476.576 km

RAAN: 266.4581 deg

Eccentricy: 0.02633962

Argument of periapsis: 161.9674 deg

Mean anomaly: 199.0977 deg

Mean motion: 14.69705438 rev/day

Mean motion (dot): 0.00010421 rev/day2

B* drag term: 0.0010341112 1/REarth

Two-line elements (TLE)

Creation date: Sept. 8, 2025, 6:18 p.m.

Reference frame: TEME

Reference center: EARTH

Epoch: Sept. 8, 2025, 8:48 a.m. UTC

TLE line 0: 0 COSMOS 374 DEB

TLE line 1: 1 04699U 70089R 25251.36716099 .00010421 00000-0 10341-2 0 9997

TLE line 2: 2 04699 62.9156 266.4581 0263396 161.9674 199.0977 14.69705438670219

Live tracking on map

Real-time ground track for satellite COSMOS 374 DEB.

In-orbit conjunctions

A list of the most updated potential collisions computed for object COSMOS 374 DEB.

Target Orbit TCA Probability of collision Miss distance Type
CZ-2C R/B SSO 2025-04-20 02:31:18 0.0001738365 396.0 (m) ROCKET BODY
OBJECT E SSO 2024-12-23 17:59:57 0.002028406 79.0 (m) UNKNOWN

Associated space launch

The I2P satellites were the first soviet coorbital ASAT system.

COSMOS 374 DEB was lifted into orbit during the mission ‘Tsiklon-2 | I2P 4’, on board a Tsiklon-2 space rocket.

The launch took place on Oct. 23, 1970, 4:42 a.m. from 90/20.

For more information about the launch, click the button.

Launch to space Tsiklon-2 | I2P 4
Tsiklon-2 | I2P 4

Agency: N/A

Status: Launch Successful

Launch date: Oct. 23, 1970, 4:42 a.m. UTC

Rocket: Tsiklon-2

Launch pad: 90/20

Location: Baikonur Cosmodrome, Republic of Kazakhstan

...

Latest news about this satellite

There are no fresh news available about this satellite. Check back as we update our databases every day.


Newsletter sign-up

Weekly statistics, charts and insights to help you stay on top of the space industry.